User: anonymous   Login
Location: Mentone
(34.5413°N, 85.5351°W)
Time: 10:44:59
(UTC-05:00)
Language:

Okean O Rocket - Orbit

View from above orbital plane
View from above orbital plane
View from above satellite
View from above satellite

Ground track
Ground track

The orbit data is extracted from the following two-line orbital elements,

1 25861U 99039B   17232.94212972 +.00000042 +00000-0 +13220-4 0  9991
2 25861 098.1113 204.7131 0014595 230.2088 192.1461 14.78423335975232
Epoch (UTC): 20 August 2017 22:36:40
Eccentricity: 0.0014595
inclination: 98.1113°
perigee height: 624 km
apogee height: 644 km
right ascension of ascending node: 204.7131°
argument of perigee: 230.2088°
revolutions per day: 14.78423335
mean anomaly at epoch: 192.1461°
orbit number at epoch: 97523

The dashed part of the orbit path shows where the satellite is in the earth's shadow,  

DLR